Weather observations for the past three days for
York, York Municipal Airport
Metric (Imperial)
Date Time (cdt) Wind (kph) Vis. (km) Weather Sky Cond. Temperature (ºC) Relative Humidity Wind Chill (°C) Heat Index (°C) Pressure Precipitation (cm)
Air Dwpt 6 hour altimeter (cm) sea level (mb) 1 hr 3 hr 6 hr
Max. Min.
03 20:15 N 7 16.09 Fair CLR 21 2 29% 75.62 0.0
03 19:55 Calm 16.09 Fair CLR 21 3 31% 75.64 0.0
03 19:35 Calm 16.09 Fair CLR 22 3 29% 75.67 0.0
03 19:15 Calm 16.09 Fair CLR 22 6 36% 75.67 0.0
03 18:55 Calm 16.09 Fair CLR 23 2 25% 75.69 0.0
03 18:35 Calm 16.09 Fair CLR 23 2 25% 75.72 0.0
03 18:15 Vrbl 6 16.09 Fair CLR 23 2 25% 75.72 0.0
03 17:55 Calm 14.48 Fair CLR 23 2 25% 75.74 0.0
03 17:35 NW 7 16.09 Fair CLR 23 2 25% 75.74 0.0
03 17:15 Calm 16.09 Fair CLR 23 2 25% 75.74 0.0
03 16:55 Vrbl 6 16.09 Fair CLR 23 3 27% 75.77 0.0
03 16:35 E 7 G 20 16.09 Fair CLR 23 2 25% 75.77 0.0
03 16:15 Calm 16.09 Fair CLR 23 1 23% 75.77 0.0
03 15:55 N 7 G 19 16.09 Fair CLR 23 2 25% 75.79 0.0
03 15:35 Vrbl 7 16.09 Fair CLR 23 2 25% 75.82 0.0
03 15:15 Vrbl 6 G 24 16.09 Fair CLR 22 2 27% 75.84 0.0
03 14:55 NE 17 G 28 16.09 Fair CLR 23 3 27% 75.87 0.0
03 14:35 N 15 16.09 Fair CLR 23 3 27% 75.87 0.0
03 14:15 N 19 G 33 16.09 Fair CLR 23 2 25% 75.9 0.0
03 13:55 N 15 16.09 Fair CLR 23 3 27% 75.9 0.0
03 13:35 N 13 G 24 16.09 Fair CLR 23 3 27% 75.9 0.0
03 13:15 NE 22 16.09 Fair CLR 23 3 27% 75.92 0.0
03 12:55 NE 15 G 31 16.09 Fair CLR 23 3 27% 75.95 0.0
03 12:35 N 15 G 28 16.09 Fair CLR 22 3 29% 75.97 0.0
03 12:15 N 19 G 28 16.09 Fair CLR 22 3 29% 75.97 0.0
03 11:55 N 22 16.09 Fair CLR 22 4 31% 75.97 0.0
03 11:35 N 13 G 30 16.09 Fair CLR 21 5 35% 75.97 0.0
03 11:15 N 24 16.09 Fair CLR 21 4 33% 76 0.0
03 10:55 N 17 G 26 16.09 Fair CLR 20 4 35% 76 0.0
03 10:35 N 15 16.09 Fair CLR 19 4 37% 76 0.0
03 10:15 N 17 16.09 Fair CLR 19 4 37% 76 0.0
03 09:55 NW 19 16.09 Fair CLR 18 4 40% 76 0.0
03 09:35 N 13 G 22 16.09 Fair CLR 17 3 39% 76 0.0
03 09:15 NW 13 16.09 Fair CLR 17 3 39% 75.97 0.0
03 08:55 NW 17 16.09 Fair CLR 16 4 45% 75.97 0.0
03 08:35 W 15 16.09 Fair CLR 15 4 48% 75.95 0.0
03 08:15 W 15 16.09 Fair CLR 13 4 55% 75.92 0.0
03 07:55 W 15 16.09 Fair CLR 12 4 58% 75.95 0.0
03 07:35 SW 15 16.09 Fair CLR 10 4 67% 8 75.92 0.0
03 07:15 SW 13 16.09 Fair CLR 9 3 66% 7 75.9 0.0
03 06:55 SW 15 16.09 Fair CLR 9 3 66% 7 75.9 0.0
03 06:35 SW 15 16.09 Fair CLR 8 3 71% 6 75.9 0.0
03 06:15 SW 13 16.09 Fair CLR 8 2 66% 6 75.87 0.0
03 05:35 SW 13 16.09 Fair CLR 8 2 66% 6 75.87 0.0
03 05:15 W 17 16.09 Fair CLR 10 1 54% 8 75.92 0.0
03 04:55 NW 30 G 43 16.09 Fair CLR 10 0 50% 7 75.97 0.0
03 04:35 SW 24 16.09 Fair CLR 11 0 47% 75.82 0.0
03 04:15 S 20 16.09 Fair CLR 10 0 50% 8 75.84 0.0
03 03:55 S 19 16.09 Fair CLR 10 -1 47% 8 75.84 0.0
03 03:35 S 20 16.09 Fair CLR 10 -1 47% 8 75.84 0.0
03 03:15 SW 22 16.09 Fair CLR 11 -1 44% 75.87 0.0
03 02:55 SW 24 16.09 Fair CLR 11 -1 44% 75.9 0.0
03 02:35 SW 26 G 35 16.09 Fair CLR 12 -1 41% 75.92 0.0
03 02:15 SW 24 G 35 16.09 Fair CLR 12 -1 41% 75.92 0.0
03 01:55 SW 26 16.09 Fair CLR 12 -1 41% 75.95 0.0
03 01:35 SW 26 16.09 Fair CLR 12 -1 41% 75.95 0.0
03 01:15 S 30 G 39 16.09 Fair CLR 13 -1 38% 75.95 0.0
03 00:55 S 28 16.09 Fair CLR 13 -1 38% 75.95 0.0
03 00:35 S 28 16.09 Fair CLR 13 -1 38% 75.95 0.0
03 00:15 S 28 16.09 Fair CLR 13 -1 38% 75.97 0.0
02 23:55 S 26 16.09 Fair CLR 13 -1 38% 75.97 0.0
02 23:35 S 30 16.09 Fair CLR 14 -1 36% 75.97 0.0
02 23:15 S 26 16.09 Fair CLR 13 -2 36% 76 0.0
02 22:55 S 26 16.09 Fair CLR 13 -2 36% 76 0.0
02 22:35 S 22 16.09 Fair CLR 13 -1 38% 76.02 0.0
02 22:15 S 20 16.09 Fair CLR 14 -2 33% 76.05 0.0
02 21:55 S 22 16.09 Fair CLR 14 -2 33% 76.05 0.0
02 21:35 S 20 16.09 Fair CLR 15 -2 31% 76.07 0.0
02 21:15 S 17 16.09 Fair CLR 15 -1 34% 76.07 0.0
02 20:55 S 15 16.09 Fair CLR 15 -1 34% 76.07 0.0
02 20:35 S 15 16.09 Fair CLR 16 -1 31% 76.07 0.0
02 20:15 S 13 16.09 Fair CLR 17 0 32% 76.1 0.0
02 19:55 SW 13 16.09 Fair CLR 18 0 30% 76.1 0.0
02 19:35 SW 13 16.09 Fair CLR 20 -2 23% 76.12 0.0
02 19:15 SW 19 16.09 Fair CLR 20 -2 23% 76.12 0.0
02 18:55 W 22 16.09 Fair CLR 20 -3 21% 76.15 0.0
02 18:35 W 22 16.09 Fair CLR 20 -3 21% 76.15 0.0
02 18:15 SW 22 G 33 16.09 Fair CLR 21 -3 20% 76.17 0.0
02 17:55 SW 17 G 33 16.09 Fair CLR 20 -3 21% 76.2 0.0
02 17:35 SW 15 G 31 16.09 Fair CLR 21 -3 20% 76.23 0.0
02 17:15 SW 15 G 28 16.09 Fair CLR 20 -4 20% 76.23 0.0
02 16:55 W 17 G 33 16.09 Fair CLR 20 -3 21% 76.25 0.0
02 16:35 W 15 G 30 16.09 Fair CLR 20 -3 21% 76.28 0.0
02 16:15 SW 22 16.09 Fair CLR 20 -3 21% 76.3 0.0
02 15:55 W 26 16.09 Fair CLR 20 -3 21% 76.33 0.0
02 15:35 Vrbl 11 G 26 16.09 Fair CLR 19 -4 21% 76.35 0.0
02 14:55 W 20 G 31 16.09 Fair CLR 19 -3 22% 76.4 0.0
02 14:35 W 15 16.09 Fair CLR 19 -2 24% 76.43 0.0
02 14:15 W 13 G 30 16.09 Fair CLR 18 -3 24% 76.43 0.0
02 13:55 W 13 G 28 16.09 Fair CLR 18 -2 26% 76.45 0.0
02 13:35 Vrbl 9 G 26 16.09 Fair CLR 17 -3 25% 76.48 0.0
02 13:15 W 15 16.09 Fair CLR 17 -2 27% 76.5 0.0
02 12:55 SW 15 G 26 16.09 Fair CLR 16 -2 29% 76.53 0.0
02 12:35 Vrbl 9 G 20 16.09 Fair CLR 16 -2 29% 76.56 0.0
02 12:15 W 13 G 24 16.09 Fair CLR 16 -2 29% 76.58 0.0
02 11:55 W 13 G 22 16.09 Fair CLR 15 -1 34% 76.61 0.0
02 11:35 W 13 G 22 16.09 Fair CLR 15 -1 34% 76.61 0.0
02 11:15 W 17 G 26 16.09 Fair CLR 15 -1 34% 76.63 0.0
02 10:55 W 19 16.09 Fair CLR 14 -2 33% 76.66 0.0
02 10:35 W 17 16.09 Fair CLR 13 -2 36% 76.66 0.0
02 10:15 W 15 16.09 Fair CLR 12 -2 38% 76.66 0.0
02 09:55 SW 15 16.09 Fair CLR 12 -2 38% 76.68 0.0
02 09:35 W 15 16.09 Fair CLR 11 -2 41% 76.68 0.0
02 09:15 W 17 16.09 Fair CLR 10 0 50% 8 76.68 0.0
02 08:55 W 15 16.09 Fair CLR 9 0 54% 7 76.68 0.0
02 08:35 W 9 16.09 Fair CLR 7 1 66% 5 76.68 0.0
02 08:15 W 11 16.09 Fair CLR 6 2 76% 4 76.66 0.0
02 07:55 W 7 16.09 Fair CLR 4 2 87% 2 76.66 0.0
02 07:35 W 11 16.09 Fair CLR 2 1 93% -1 76.66 0.0
02 07:15 W 7 16.09 Fair CLR 1 0 93% -1 76.66 0.0
02 06:55 W 9 16.09 Fair CLR 1 -1 87% -2 76.66 0.0
02 06:35 W 9 16.09 Fair CLR 0 -1 93% -3 76.63 0.0
02 06:15 W 9 16.09 Fair CLR 0 -1 93% -3 76.63 0.0
02 05:55 W 11 16.09 Fair CLR 0 -1 93% -3 76.63 0.0
02 05:35 W 11 16.09 Fair CLR 0 -1 93% -3 76.66 0.0
02 05:15 W 9 16.09 Fair CLR 1 -1 87% -2 76.63 0.0
02 04:55 W 9 16.09 Fair CLR 0 -1 93% -3 76.63 0.0
02 04:35 W 7 16.09 Fair CLR 0 -1 93% -2 76.63 0.0
02 04:15 W 9 16.09 Fair CLR 1 -1 87% -2 76.63 0.0
02 03:55 W 7 16.09 Fair CLR 0 -1 93% -2 76.63 0.0
02 03:35 W 7 16.09 Fair CLR 0 -1 93% -2 76.63 0.0
02 03:15 W 7 16.09 Fair CLR 1 -2 81% -1 76.63 0.0
02 02:55 W 9 16.09 Fair CLR 0 -1 93% -3 76.63 0.0
02 02:15 W 6 16.09 Fair CLR 1 -1 87% 76.63 0.0
02 01:55 Calm 16.09 Fair CLR 2 -1 81% 76.63 0.0
02 01:35 Calm 16.09 Fair CLR 4 -2 65% 76.63 0.0
02 01:15 Calm 16.09 Fair CLR 4 -1 70% 76.63 0.0
02 00:55 N 9 16.09 Fair CLR 4 -1 70% 2 76.63 0.0
02 00:35 N 7 16.09 Fair CLR 5 -2 61% 4 76.61 0.0
02 00:15 N 7 16.09 Fair CLR 5 -2 61% 4 76.61 0.0
01 23:55 NE 7 16.09 Fair CLR 5 -3 57% 4 76.61 0.0
01 23:35 Calm 16.09 Fair CLR 6 -3 53% 76.58 0.0
01 23:15 NE 7 16.09 Fair CLR 6 -3 53% 5 76.58 0.0
01 22:55 NE 9 16.09 Fair CLR 6 -2 57% 4 76.58 0.0
01 22:35 NE 9 16.09 Fair CLR 7 -2 53% 5 76.56 0.0
01 22:15 NE 11 16.09 Fair CLR 7 -3 49% 5 76.56 0.0
01 21:55 NE 11 16.09 Fair CLR 6 -2 57% 4 76.53 0.0
01 21:35 NE 13 16.09 Fair CLR 7 -3 49% 5 76.5 0.0
01 21:15 NE 13 16.09 Fair CLR 8 -2 50% 6 76.48 0.0
01 20:55 NE 13 16.09 Fair CLR 9 -2 46% 7 76.48 0.0
01 20:35 NE 15 16.09 Fair CLR 10 -3 40% 8 76.45 0.0
01 20:15 NE 15 16.09 Fair CLR 11 -3 38% 76.43 0.0
01 19:55 N 20 16.09 Fair CLR 12 -4 33% 76.43 0.0
01 19:35 N 19 16.09 Fair CLR 13 -4 31% 76.4 0.0
01 19:15 N 15 G 30 16.09 Fair CLR 13 -4 31% 76.4 0.0
01 18:55 N 24 G 33 16.09 Fair CLR 14 -4 29% 76.4 0.0
01 18:35 N 31 G 41 16.09 Fair CLR 14 -4 29% 76.38 0.0
01 18:15 N 26 G 35 16.09 Fair CLR 14 -4 29% 76.38 0.0
01 17:55 N 20 G 46 16.09 Fair CLR 15 -3 29% 76.38 0.0
01 17:35 N 22 G 31 16.09 A Few Clouds FEW080 15 -3 29% 76.38 0.0
01 17:15 N 15 G 30 16.09 A Few Clouds FEW080 15 -3 29% 76.4 0.0
01 16:55 N 15 G 33 16.09 Fair CLR 15 -2 31% 76.38 0.0
01 16:35 N 20 G 39 16.09 Fair CLR 15 -2 31% 76.4 0.0
01 16:15 N 24 G 43 16.09 Fair CLR 15 -1 34% 76.4 0.0
01 15:55 N 33 G 44 16.09 Fair and Breezy CLR 15 -2 31% 76.4 0.0
01 15:35 N 17 G 26 16.09 Fair CLR 15 -1 34% 76.43 0.0
01 15:15 N 15 G 41 16.09 Fair CLR 15 -1 34% 76.43 0.0
01 14:55 N 17 G 30 16.09 A Few Clouds FEW085 14 -1 36% 76.45 0.0
01 14:35 NW 20 G 31 16.09 Partly Cloudy SCT085 15 0 36% 76.45 0.0
01 14:15 N 20 G 37 16.09 A Few Clouds FEW090 14 0 39% 76.45 0.0
01 13:55 N 24 G 35 16.09 Partly Cloudy SCT090 14 0 39% 76.45 0.0
01 13:35 N 19 G 37 16.09 A Few Clouds FEW090 13 0 41% 76.48 0.0
01 13:15 N 17 G 30 16.09 A Few Clouds FEW120 14 1 41% 76.48 0.0
01 12:55 N 15 G 39 16.09 A Few Clouds FEW090 13 0 41% 76.48 0.0
01 12:35 N 20 G 35 16.09 A Few Clouds FEW090 13 0 41% 76.5 0.0
01 12:15 N 22 G 41 16.09 Fair CLR 13 0 41% 76.5 0.0
01 11:55 N 26 G 35 16.09 Fair CLR 12 0 44% 76.5 0.0
01 11:35 N 28 G 37 16.09 Fair CLR 12 0 44% 76.5 0.0
01 11:15 N 28 16.09 Fair CLR 12 0 44% 76.5 0.0
01 10:55 N 28 16.09 Fair CLR 11 1 50% 76.48 0.0
01 10:35 N 26 G 41 16.09 Fair CLR 11 2 54% 76.48 0.0
01 10:15 N 31 16.09 Fair CLR 10 1 54% 7 76.48 0.0
01 09:55 N 28 G 43 16.09 Fair CLR 10 2 58% 7 76.48 0.0
01 09:35 N 26 G 39 16.09 Fair CLR 9 2 62% 6 76.48 0.0
01 09:15 N 17 G 35 16.09 Fair CLR 8 3 71% 6 76.48 0.0
01 08:55 N 17 16.09 Fair CLR 8 3 71% 6 76.48 0.0
01 08:35 N 15 G 24 16.09 Fair CLR 7 3 76% 5 76.48 0.0
01 08:15 NW 15 16.09 Fair CLR 6 2 76% 3 76.48 0.0
01 07:55 NW 17 16.09 Fair CLR 5 2 81% 2 76.45 0.0
01 07:35 NW 17 16.09 Fair CLR 4 2 87% 1 76.45 0.0
01 07:15 NW 19 16.09 Fair CLR 3 2 93% -1 76.43 0.0
01 06:55 NW 19 16.09 Fair CLR 3 1 87% -1 76.43 0.0
01 06:35 NW 19 16.09 A Few Clouds FEW080 3 2 93% -1 76.43 0.0
01 06:15 NW 19 16.09 Mostly Cloudy BKN080 BKN085 2 2 100% -2 76.43 0.0
01 05:55 NW 17 16.09 Overcast SCT075 OVC085 2 2 100% -2 76.43 0.0
01 05:35 W 15 16.09 Partly Cloudy SCT075 SCT085 2 2 100% -2 76.4 0.0
01 05:15 W 13 16.09 Fair CLR 2 2 100% -1 76.4 0.0
01 04:55 W 17 16.09 A Few Clouds FEW080 2 2 100% -2 76.4 0.0
01 04:35 SW 15 16.09 Mostly Cloudy BKN085 2 1 93% -2 76.4 0.0
01 04:15 SW 9 16.09 Mostly Cloudy FEW075 BKN090 2 1 93% -0 76.4 0.0
01 03:55 SW 13 16.09 A Few Clouds FEW070 FEW080 3 1 87% 0 76.4 0.0
01 03:35 SW 13 16.09 Fair CLR 3 1 87% 0 76.4 0.0
01 03:15 SW 13 16.09 Fair CLR 3 1 87% 0 76.4 0.0
01 02:55 SW 15 16.09 Fair CLR 3 1 87% -0 76.43 0.0
01 02:35 SW 13 16.09 Fair CLR 3 2 93% 0 76.45 0.0
01 01:55 SW 15 16.09 Fair CLR 3 1 87% -0 76.45 0.0
01 01:35 SW 13 16.09 Fair CLR 3 2 93% 0 76.45 0.0
01 01:15 SW 11 16.09 Fair CLR 3 2 93% 0 76.48 0.0
01 00:55 S 7 16.09 Fair CLR 2 2 100% 0 76.48 0.0
01 00:35 S 11 16.09 Fair CLR 3 2 93% 0 76.48 0.0
30 23:55 S 9 16.09 Fair CLR 4 2 87% 2 76.48 0.0
30 23:35 S 7 16.09 Fair CLR 4 2 87% 2 76.5 0.0
30 23:15 SW 6 16.09 Fair CLR 6 1 71% 76.5 0.0
30 22:55 Calm 16.09 Fair CLR 7 1 66% 76.5 0.0
30 22:35 Calm 16.09 Fair CLR 6 2 76% 76.53 0.0
30 22:15 Calm 16.09 Fair CLR 7 2 71% 76.53 0.0
30 21:55 NW 6 16.09 Fair CLR 7 1 66% 76.5 0.0
30 21:35 Calm 16.09 Fair CLR 7 2 71% 76.5 0.0
30 20:55 N 6 16.09 Fair CLR 8 2 66% 76.48 0.0
30 20:35 Calm 16.09 Fair CLR 9 3 66% 76.45 0.0
Date Time (cdt) Wind (kph) Vis. (km) Weather Sky Cond. Air Dwpt Max. Min. Relative Humidity Wind Chill (°C) Heat Index (°C) altimeter (cm) sea level (mb) 1 hr 3 hr 6 hr
6 hour
Temperature (ºC) Pressure Precipitation (cm)